DMSP 5D-2 F13 DEB

Satellite information

Favourite Embed

Satellite Type and Status

DEBRISIN ORBIT

Key statistics

Satellite DMSP 5D-2 F13 DEB at a glance.

Uptime

11127

Days in orbit

Revolutions

≈ 14.5

Per day

Orbit

SSO

Sun Synchronous Orbit

Inclination

98.7

Latest

Satellite identification and parameters

Extended collection of information and parameters for DMSP 5D-2 F13 DEB.

Object identification

Identified? True

Debris? True

Object name: DMSP 5D-2 F13 DEB

International designator: 1995-015EL

Object number (NORAD): 40577

Object ID (CCSDS): 40577

Country: UNITED STATES OF AMERICA (US)

Current information (Y/N): Y

RCS size: SMALL

Orbital parameters

Period: 99.531 minutes

Inclination: 98.6692 deg

SMA: 7114.296 km

Apoapsis: 743.77 km

Periapsis: 728.553 km

RAAN: 284.714 deg

Eccentricy: 0.00106945

Argument of periapsis: 310.7389 deg

Mean anomaly: 49.2873 deg

Mean motion: 14.46787763 rev/day

Mean motion (dot): 0.00018178 rev/day2

B* drag term: 0.0050163713 1/REarth

Two-line elements (TLE)

Creation date: Sept. 4, 2025, 4:29 a.m.

Reference frame: TEME

Reference center: EARTH

Epoch: Sept. 3, 2025, 8:02 a.m. UTC

TLE line 0: 0 DMSP 5D-2 F13 DEB

TLE line 1: 1 40577U 95015EL 25246.33496592 .00018178 00000-0 50164-2 0 9996

TLE line 2: 2 40577 98.6692 284.7140 0010694 310.7389 49.2873 14.46787763542021

Live tracking on map

Real-time ground track for satellite DMSP 5D-2 F13 DEB.

In-orbit conjunctions

A list of the most updated potential collisions computed for object DMSP 5D-2 F13 DEB.

Target Orbit TCA Probability of collision Miss distance Type
CZ-6A DEB LEO 2025-03-20 04:33:23 0.0001332693 54.0 (m) DEBRIS
IRIDIUM 33 DEB LEO 2024-12-11 17:27:12 0.0001194106 77.0 (m) DEBRIS
COSMOS 1331 DEB LEO 2024-10-13 07:02:25 0.000141944 143.0 (m) DEBRIS
METEOR 2-7 DEB LEO 2024-07-15 03:16:00 0.000101388 115.0 (m) DEBRIS

Associated space launch

Military meteorological satellite

DMSP 5D-2 F13 DEB was lifted into orbit during the mission ‘Atlas E | DMSP-5D2 F13’, on board a Atlas E space rocket.

The launch took place on March 24, 1995, 2:05 p.m. from Space Launch Complex 3W.

For more information about the launch, click the button.

Launch to space Atlas E | DMSP-5D2 F13
Atlas E | DMSP-5D2 F13

Agency: N/A

Status: Launch Successful

Launch date: March 24, 1995, 2:05 p.m. UTC

Rocket: Atlas E

Launch pad: Space Launch Complex 3W

Location: Vandenberg SFB, CA, USA

...

Latest news about this satellite

There are no fresh news available about this satellite. Check back as we update our databases every day.


Newsletter sign-up

Weekly statistics, charts and insights to help you stay on top of the space industry.